Weather History for KMFI - October, 2012

Change the Weather History Date:

Saturday, October 6, 2012

  Actual Average Record
Temperature  
Mean Temperature 38 °F -  
Max Temperature 46 °F 61 °F 86 °F (1963)
Min Temperature 33 °F 39 °F 18 °F (1935)
Degree Days  
Heating Degree Days 27    
Moisture  
Dew Point 26 °F    
Average Humidity 64    
Maximum Humidity 81    
Minimum Humidity 49    
Precipitation  
Precipitation 0.00 in - - ()
Sea Level Pressure  
Sea Level Pressure 30.13 in    
Wind  
Wind Speed 12 mph (NW)    
Max Wind Speed 18 mph    
Max Gust Speed 28 mph    
Visibility 10 miles    
Events      
Averages and records for this station are not official NWS values.
T = Trace of Precipitation, MM = Missing Value Source: NWS Daily Summary

Daily Weather History Graph

Daily Weather History Graph

Search for Another Location

Airport or City:

Trip Planner

Search our weather history database for the weather conditions in past years. The results will help you decide how hot, cold, wet, or windy it might be!

Date:

Astronomy

Oct. 06, 2012 Rise Set
Actual Time 7:05 AM CDT 6:31 PM CDT
Civil Twilight 6:36 AM CDT 7:00 PM CDT
Nautical Twilight 6:02 AM CDT 7:34 PM CDT
Astronomical Twilight 5:28 AM CDT 8:08 PM CDT
Moon 10:36 PM CDT (10/6) 1:11 PM CDT (10/6)
Length of Visible Light 12h 24m
Length of Day
11h 25m
Waning Gibbous, 65% of the Moon is Illuminated
Oct 6
Waning Gibbous
Oct 8
Last Quarter
Oct 15
New
Oct 21
First Quarter
Oct 29
Full

Hourly Weather History & Observations

Time (CDT) Temp. Windchill Dew Point Humidity Pressure Visibility Wind Dir Wind Speed Gust Speed Precip Events Conditions
12:54 AM 37.0 °F 29.3 °F 26.1 °F 65% 30.04 in 10.0 mi WNW 11.5 mph 20.7 mph N/A   Overcast
1:54 AM 37.0 °F 29.3 °F 26.1 °F 65% 30.04 in 10.0 mi WNW 11.5 mph - N/A   Overcast
2:12 AM 37.4 °F 28.9 °F 26.6 °F 65% 30.01 in 10.0 mi WNW 13.8 mph - N/A   Overcast
2:54 AM 37.0 °F 27.7 °F 26.1 °F 65% 30.04 in 10.0 mi WNW 16.1 mph 20.7 mph N/A   Overcast
3:54 AM 37.0 °F 28.9 °F 27.0 °F 67% 30.04 in 10.0 mi NW 12.7 mph - N/A   Overcast
4:42 AM 35.6 °F 28.0 °F 28.4 °F 75% 30.02 in 10.0 mi NW 10.4 mph - 0.00 in   Overcast
4:54 AM 37.0 °F 29.3 °F 28.9 °F 73% 30.06 in 10.0 mi NW 11.5 mph - 0.00 in   Overcast
5:02 AM 37.4 °F 29.3 °F 28.4 °F 70% 30.02 in 10.0 mi NW 12.7 mph - N/A   Overcast
5:54 AM 36.0 °F 25.6 °F 28.0 °F 73% 30.08 in 10.0 mi NW 18.4 mph 27.6 mph N/A   Overcast
6:54 AM 36.0 °F 27.1 °F 28.0 °F 73% 30.10 in 10.0 mi NW 13.8 mph - N/A   Overcast
7:35 AM 33.8 °F 25.3 °F 28.4 °F 81% 30.08 in 10.0 mi NW 11.5 mph - N/A   Scattered Clouds
7:54 AM 35.1 °F 27.4 °F 28.0 °F 76% 30.13 in 10.0 mi WNW 10.4 mph - N/A   Scattered Clouds
8:03 AM 35.6 °F 26.6 °F 28.4 °F 75% 30.09 in 10.0 mi WNW 13.8 mph - N/A   Mostly Cloudy
8:31 AM 35.6 °F 27.1 °F 28.4 °F 75% 30.10 in 10.0 mi NW 12.7 mph - N/A   Mostly Cloudy
8:43 AM 35.6 °F 26.6 °F 28.4 °F 75% 30.10 in 10.0 mi NW 13.8 mph - N/A   Scattered Clouds
8:54 AM 37.0 °F 28.1 °F 28.9 °F 73% 30.15 in 10.0 mi NW 15.0 mph - N/A   Scattered Clouds
9:23 AM 37.4 °F 28.2 °F 28.4 °F 70% 30.12 in 10.0 mi NNW 16.1 mph 24.2 mph N/A   Mostly Cloudy
9:54 AM 37.9 °F 30.5 °F 28.0 °F 68% 30.17 in 10.0 mi NNW 11.5 mph - N/A   Overcast
10:54 AM 39.9 °F 32.1 °F 27.0 °F 60% 30.18 in 10.0 mi NNW 13.8 mph - N/A   Overcast
11:13 AM 41.0 °F 33.1 °F 26.6 °F 57% 30.14 in 10.0 mi NNW 15.0 mph 20.7 mph N/A   Mostly Cloudy
11:54 AM 41.0 °F 33.1 °F 26.1 °F 55% 30.18 in 10.0 mi North 15.0 mph - N/A   Mostly Cloudy
12:54 PM 42.1 °F 34.9 °F 25.0 °F 51% 30.18 in 10.0 mi NNW 13.8 mph - N/A   Mostly Cloudy
1:54 PM 42.1 °F 34.2 °F 26.1 °F 53% 30.17 in 10.0 mi NNW 16.1 mph - N/A   Overcast
2:54 PM 43.0 °F 38.2 °F 25.0 °F 49% 30.17 in 10.0 mi NNW 8.1 mph 19.6 mph N/A   Overcast
3:54 PM 41.0 °F 34.7 °F 24.1 °F 51% 30.18 in 10.0 mi NNW 10.4 mph - N/A   Overcast
4:54 PM 41.0 °F 34.3 °F 24.1 °F 51% 30.18 in 10.0 mi NNW 11.5 mph - N/A   Overcast
6:54 PM 39.9 °F 35.1 °F 23.0 °F 51% 30.20 in 10.0 mi NNW 6.9 mph - N/A   Overcast
7:54 PM 39.0 °F 34.0 °F 23.0 °F 53% 30.22 in 10.0 mi NNW 6.9 mph - N/A   Overcast
8:54 PM 37.9 °F 35.5 °F 24.1 °F 57% 30.22 in 10.0 mi NNW 3.5 mph - N/A   Overcast
9:54 PM 37.0 °F - 24.1 °F 59% 30.22 in 10.0 mi Calm Calm - N/A   Overcast
10:54 PM 37.0 °F 34.5 °F 24.1 °F 59% 30.22 in 10.0 mi WNW 3.5 mph - N/A   Overcast
11:54 PM 37.0 °F 33.3 °F 24.1 °F 59% 30.21 in 10.0 mi WNW 4.6 mph - N/A   Overcast